Inquirer Daily News

Weather

Get conditions and forecasts for any City, State, ZIP code or Country:  
Northeast Philadelphia, PA
on Wednesday, November 28, 2012

Wednesday
Previous Day Next Day
Daily Summary
 ActualAverage (KTTN)Record (KTTN)
Temperature
Mean Temperature °F 42°F  
Max Temperature 41°F 49°F 76°F (1896)
Min Temperature 32°F 34°F 14°F (1930)
Degree Days
Heating Degree Days 28 24  
Month to date heating degree days 532  
Since 1 July heating degree days 929  
Cooling Degree Days 0 0  
Month to date cooling degree days 0  
Year to date cooling degree days 965  
Moisture
Dew Point 26°F   
Average Humidity 69    
Maximum Humidity 89    
Minimum Humidity 49    
Precipitation
Precipitation 0.00 in 0.13 in 2.80 in (1993)
Month to date precipitation 3.04  
Year to date precipitation 42.47  
Wind
Wind Speed 7 mph   
Max Wind Speed 15 mph   
Max Gust Speed 22 mph   
Visibility 10 miles   
Events     

Key: T is trace of precipitation, MM is missing value
Source: NWS Daily Summary
Time(EST)TemperatureDew PointHumidity Pressure Visibility Wind DirectionWind SpeedGust SpeedPrecipitationEvents Conditions
12:54 AM 36.0°F 33.1°F 89% 30.22 in 10.0 miles North 6.9 mph - N/A   Overcast
1:54 AM 36.0°F 32.0°F 86% 30.23 in 10.0 miles NNW 6.9 mph - N/A   Overcast
2:54 AM 36.0°F 32.0°F 86% 30.22 in 10.0 miles North 9.2 mph - N/A   Overcast
3:54 AM 36.0°F 32.0°F 86% 30.25 in 10.0 miles NW 5.8 mph - N/A   Overcast
4:54 AM 35.1°F 30.9°F 85% 30.26 in 10.0 miles NNW 4.6 mph - N/A   Overcast
5:54 AM 34.0°F 28.9°F 82% 30.25 in 10.0 miles NNW 5.8 mph - N/A   Overcast
6:54 AM 33.1°F 28.9°F 85% 30.25 in 9.0 miles NW 5.8 mph - N/A   Clear
7:54 AM 34.0°F 28.9°F 82% 30.28 in 10.0 miles NW 6.9 mph - N/A   Mostly Cloudy
8:54 AM 36.0°F 28.0°F 73% 30.29 in 10.0 miles NW 6.9 mph - N/A   Mostly Cloudy
9:54 AM 37.0°F 28.0°F 70% 30.29 in 10.0 miles NW 8.1 mph - N/A   Clear
10:54 AM 39.0°F 26.1°F 60% 30.28 in 10.0 miles NNW 8.1 mph - N/A   Clear
11:54 AM 39.0°F 21.0°F 49% 30.26 in 10.0 miles NNW 13.8 mph - N/A   Mostly Cloudy
12:54 PM 41.0°F 23.0°F 49% 30.25 in 10.0 miles WNW 11.5 mph - N/A   Overcast
1:54 PM 37.9°F 21.9°F 53% 30.25 in 10.0 miles NW 13.8 mph - N/A   Overcast
2:54 PM 39.0°F 21.0°F 49% 30.25 in 10.0 miles WNW 15.0 mph 21.9 mph N/A   Clear
3:54 PM 37.9°F 21.0°F 51% 30.25 in 10.0 miles West 10.4 mph - N/A   Clear
4:54 PM 36.0°F 21.0°F 55% 30.26 in 10.0 miles WNW 4.6 mph - N/A   Clear
5:54 PM 34.0°F 21.9°F 61% 30.29 in 10.0 miles WSW 4.6 mph - N/A   Clear
6:54 PM 35.1°F 21.9°F 59% 30.30 in 10.0 miles West 4.6 mph - N/A   Clear
7:54 PM 32.0°F 21.9°F 66% 30.31 in 10.0 miles Calm Calm - N/A   Clear
8:54 PM 32.0°F 23.0°F 69% 30.32 in 10.0 miles West 4.6 mph - N/A   Clear
9:54 PM 32.0°F 24.1°F 73% 30.33 in 10.0 miles West 4.6 mph - N/A   Clear
10:54 PM 32.0°F 21.9°F 66% 30.35 in 10.0 miles West 8.1 mph - N/A   Clear
11:54 PM 32.0°F 21.0°F 64% 30.35 in 10.0 miles West 6.9 mph - N/A   Clear
Astronomy
Sunrise:07:00 AM (EST) Moon Rise:04:49 PM (EST)11/28
Sunset:04:35 PM (EST) Moon Set:06:55 AM (EST)11/28
Moon Phase
Nov. 28 Dec. 06 Dec. 13 Dec. 20 Dec. 28

Copyright © 2014 The Weather Underground, Inc.